User: anonymous   Login
Location: Newark
(55.7083°N, 13.1992°E)
Time: 19:36:28
(UTC+00:00)
Language:

SPROUT - Orbit

View from above orbital plane
View from above orbital plane
View from above satellite
View from above satellite

Ground track
Ground track

The orbit data is extracted from the following two-line orbital elements,

1 39770U 14029E   20101.28427095  .00000765  00000-0  90078-4 0  9999
2 39770  97.8899 207.8840 0008651 183.5402 176.5749 14.87681148318920
Epoch (UTC): 10 April 2020 06:49:21
Eccentricity: 0.0008651
inclination: 97.8899°
perigee height: 599 km
apogee height: 611 km
right ascension of ascending node: 207.8840°
argument of perigee: 183.5402°
revolutions per day: 14.87681148
mean anomaly at epoch: 176.5749°
orbit number at epoch: 31892

The dashed part of the orbit path shows where the satellite is in the earth's shadow,  

DLR